"startDT [UTC]","vpos","CH4 [ppm]","stdev(CH4) [ppm]","CO2 [ppm]","stdev(CO2) [ppm]","H2O_reported [%]","stdev(H2O_reported)","CavityPressure [torr]","CavityTemp [C]","OutletValve","CH4_dry [ppm]","CO2_dry [ppm]","DasTemp [C]","EtalonTemp [C]","WarmBoxTemp [C]","MPVPosition","T_ECpre [C]","T_EC1 [C]","T_EC2 [C]","p_inlet [hPa]","p_in [hPa]","p_out [hPa]","T_inlet [C]","RH_inlet [%]","dwpt_inlet [C]","T_vent [C]","RH_vent [%]","dwpt_vent [C]","flow_vent [l min-1]","flow_inlet [l min-1]","dwpt_sample [C]","T_room [C]"
2015-06-25 00:00:00,3.0,1.87335,0.00428,397.950,1.035,0.1796,0.2538,139.791,45.000,31121.44800,1.87776,398.951,34.230,45.068,45.000,0.00,0.10,-272.72,-272.78,-8,462,-7,24.7,19.8,0.1,24.5,20.4,0.3,5.73,1.85,0.7,28.5
2015-06-25 00:01:00,3.0,1.87534,0.00032,397.030,0.040,0.0355,0.0024,139.992,45.000,30914.76111,1.87596,397.203,34.235,45.067,45.000,0.00,0.10,-272.72,-272.78,-8,463,-7,24.8,20.0,0.3,24.5,20.6,0.4,5.73,1.86,0.7,28.5
2015-06-25 00:02:00,3.0,1.87568,0.00038,397.166,0.065,0.0318,0.0029,139.995,45.000,30859.82607,1.87631,397.314,34.232,45.067,45.000,0.00,0.10,-272.71,-272.77,-8,463,-7,24.8,19.8,0.2,24.5,20.5,0.3,5.73,1.87,0.7,28.5
2015-06-25 00:03:00,3.0,1.87559,0.00060,397.350,0.071,0.0269,0.0023,139.996,45.000,30813.69407,1.87609,397.474,34.243,45.067,45.000,0.00,0.10,-272.72,-272.78,-8,463,-7,24.8,19.9,0.2,24.5,20.5,0.4,5.73,1.87,0.7,28.5
2015-06-25 00:04:00,3.0,1.87574,0.00043,397.434,0.063,0.0197,0.0026,139.997,45.000,30776.05143,1.87603,397.529,34.249,45.067,45.000,0.00,0.10,-272.72,-272.78,-7,463,-7,24.8,20.0,0.3,24.5,20.5,0.4,5.73,1.87,0.7,28.5
2015-06-25 00:05:00,3.0,1.87554,0.00050,397.489,0.028,0.0162,0.0020,139.999,45.000,30745.03570,1.87587,397.567,34.249,45.067,45.000,0.00,0.10,-272.71,-272.77,-8,464,-7,24.8,19.9,0.2,24.5,20.5,0.4,5.73,1.88,0.7,28.5
2015-06-25 00:06:00,3.0,1.87588,0.00041,397.514,0.023,0.0129,0.0020,139.996,45.000,30720.31857,1.87613,397.575,34.247,45.067,45.000,0.00,0.10,-272.71,-272.78,-8,464,-7,24.8,19.9,0.2,24.5,20.5,0.4,5.73,1.89,0.7,28.5
2015-06-25 00:07:00,3.0,1.87564,0.00034,397.509,0.034,0.0101,0.0023,139.997,45.000,30701.85813,1.87582,397.558,34.240,45.068,45.000,0.00,0.10,-272.72,-272.78,-8,464,-7,24.8,20.0,0.3,24.5,20.6,0.4,5.73,1.89,0.7,28.5
2015-06-25 00:08:00,3.0,1.87594,0.00044,397.513,0.027,0.0080,0.0015,140.000,45.000,30684.14486,1.87610,397.553,34.234,45.067,45.000,0.00,0.10,-272.71,-272.78,-8,464,-7,24.8,20.0,0.3,24.5,20.6,0.5,5.73,1.90,0.7,28.6
2015-06-25 00:09:00,3.0,1.87591,0.00036,397.515,0.032,0.0080,0.0018,139.997,45.000,30671.03901,1.87602,397.551,34.217,45.068,45.000,0.00,0.10,-272.70,-272.78,-8,465,-7,24.8,20.0,0.3,24.5,20.6,0.5,5.73,1.91,0.7,28.6
2015-06-25 00:10:00,3.0,1.87584,0.00041,397.496,0.030,0.0062,0.0020,139.997,45.000,30659.92487,1.87595,397.527,34.221,45.068,45.000,0.00,0.10,-272.72,-272.78,-8,465,-7,24.8,20.1,0.4,24.5,20.6,0.5,5.73,1.91,0.7,28.6
2015-06-25 00:11:00,3.0,1.87610,0.00051,397.527,0.034,0.0056,0.0018,139.999,45.000,30648.11616,1.87621,397.552,34.234,45.068,45.000,0.00,0.10,-272.72,-272.78,-8,465,-7,24.8,20.1,0.4,24.5,20.7,0.5,5.73,1.91,0.7,28.6
2015-06-25 00:12:00,3.0,1.87634,0.00042,397.542,0.031,0.0060,0.0013,140.003,45.000,30642.79621,1.87645,397.571,34.236,45.068,45.000,0.00,0.10,-272.71,-272.77,-8,466,-7,24.8,20.2,0.4,24.6,20.7,0.6,5.73,1.90,0.7,28.6
2015-06-25 00:13:00,3.0,1.87614,0.00038,397.524,0.040,0.0051,0.0014,139.998,45.000,30637.84622,1.87625,397.550,34.248,45.068,45.000,0.00,0.10,-272.72,-272.78,-8,466,-7,24.8,20.3,0.5,24.6,20.9,0.7,5.73,1.90,0.7,28.7
2015-06-25 00:14:00,3.0,1.87584,0.00030,397.506,0.035,0.0042,0.0021,140.001,45.000,30635.09758,1.87591,397.525,34.250,45.068,45.000,0.00,0.10,-272.72,-272.78,-8,466,-7,24.9,20.4,0.6,24.6,21.0,0.8,5.73,1.89,0.7,28.7
2015-06-25 00:15:00,3.0,1.87616,0.00030,397.541,0.036,0.0045,0.0018,140.000,45.000,30629.97497,1.87624,397.561,34.250,45.068,45.000,0.00,0.10,-272.71,-272.78,-8,467,-7,24.9,20.3,0.5,24.6,20.9,0.7,5.73,1.88,0.7,28.7
2015-06-25 00:16:00,3.0,1.87608,0.00049,397.545,0.032,0.0035,0.0021,139.997,45.000,30626.66277,1.87614,397.562,34.251,45.068,45.000,0.00,0.10,-272.71,-272.77,-8,467,-7,24.9,20.5,0.7,24.6,21.0,0.8,5.73,1.87,0.7,28.6
2015-06-25 00:17:00,3.0,1.87604,0.00038,397.538,0.033,0.0027,0.0020,139.999,45.000,30624.97896,1.87611,397.552,34.253,45.068,45.000,0.00,0.10,-272.72,-272.77,-8,467,-7,24.9,20.5,0.7,24.6,21.1,0.9,5.73,1.87,0.7,28.7
2015-06-25 00:18:00,3.0,1.87641,0.00041,397.542,0.035,0.0027,0.0016,140.000,45.000,30622.15212,1.87644,397.553,34.258,45.068,45.000,0.00,0.10,-272.72,-272.77,-8,468,-7,24.9,20.4,0.7,24.6,21.1,0.9,5.73,1.87,0.7,28.7
2015-06-25 00:19:00,3.0,1.87622,0.00043,397.571,0.022,0.0028,0.0023,140.002,45.000,30622.58500,1.87630,397.585,34.251,45.068,45.000,0.00,0.10,-272.71,-272.77,-8,468,-7,24.9,20.4,0.7,24.6,21.0,0.9,5.73,1.87,0.7,28.7
2015-06-25 00:20:00,0.0,1.88670,0.00264,397.096,0.593,0.7102,0.2419,140.344,45.000,33824.35468,1.89909,400.440,34.250,45.068,45.000,0.00,0.10,-272.71,-272.78,-9,986,-7,24.9,20.3,0.6,24.7,20.9,0.8,5.73,1.85,0.7,28.6
2015-06-25 00:21:00,0.0,1.88598,0.00056,396.735,0.084,0.8171,0.0039,140.006,45.000,33943.38479,1.90153,400.732,34.250,45.068,45.000,0.00,0.10,-272.72,-272.78,-8,987,-7,24.9,20.2,0.5,24.7,20.8,0.7,5.73,1.92,0.7,28.6
2015-06-25 00:22:00,0.0,1.88609,0.00049,396.868,0.078,0.8227,0.0022,140.006,45.000,34007.45795,1.90177,400.898,34.240,45.068,45.000,0.00,0.10,-272.71,-272.78,-8,987,-7,24.9,20.2,0.6,24.7,20.8,0.7,5.73,1.91,0.8,28.6
2015-06-25 00:23:00,0.0,1.88572,0.00033,396.696,0.068,0.8228,0.0025,140.001,45.000,34052.79602,1.90143,400.729,34.244,45.068,45.000,0.00,0.10,-272.71,-272.78,-8,988,-7,24.9,20.2,0.5,24.7,20.8,0.7,5.73,1.91,0.8,28.6
2015-06-25 00:24:00,0.0,1.88550,0.00051,396.664,0.120,0.8328,0.0040,140.004,45.000,34095.09562,1.90136,400.744,34.235,45.068,45.000,0.00,0.10,-272.72,-272.78,-8,988,-7,24.9,20.4,0.7,24.7,20.9,0.8,5.73,1.91,0.8,28.6
2015-06-25 00:25:00,0.0,1.88546,0.00039,396.462,0.159,0.8372,0.0068,140.004,45.000,34126.28405,1.90138,400.558,34.250,45.068,45.000,0.00,0.10,-272.71,-272.78,-8,988,-7,24.9,20.5,0.7,24.7,21.0,0.9,5.73,1.91,0.8,28.7
2015-06-25 00:26:00,0.0,1.88599,0.00039,396.325,0.080,0.8420,0.0044,140.000,45.000,34152.60294,1.90204,400.453,34.254,45.068,45.000,0.00,0.10,-272.71,-272.78,-8,988,-7,24.9,20.5,0.8,24.7,21.1,1.0,5.73,1.91,0.8,28.6
2015-06-25 00:27:00,0.0,1.88598,0.00039,396.411,0.114,0.8348,0.0044,140.003,45.000,34176.93086,1.90188,400.498,34.294,45.068,45.000,0.00,0.10,-272.72,-272.78,-8,988,-7,24.9,20.4,0.7,24.7,21.0,0.9,5.73,1.91,0.8,28.7
2015-06-25 00:28:00,0.0,1.88579,0.00039,396.623,0.145,0.8395,0.0033,140.001,45.000,34194.09471,1.90179,400.726,34.300,45.067,45.000,0.00,0.10,-272.72,-272.78,-8,988,-7,24.9,20.5,0.7,24.7,21.0,0.9,5.73,1.90,0.8,28.7
2015-06-25 00:29:00,0.0,1.88592,0.00047,396.716,0.109,0.8382,0.0019,139.999,45.000,34209.00829,1.90189,400.825,34.307,45.067,45.000,0.00,0.10,-272.71,-272.77,-8,987,-7,24.9,20.5,0.7,24.7,21.0,0.9,5.73,1.91,0.8,28.7
2015-06-25 00:30:00,0.0,1.88594,0.00038,396.698,0.075,0.8482,0.0016,140.001,45.000,34222.93498,1.90213,400.854,34.301,45.067,45.000,0.00,0.10,-272.72,-272.78,-9,988,-7,24.9,20.7,0.9,24.7,21.2,1.0,5.73,1.91,0.8,28.7
2015-06-25 00:31:00,0.0,1.88518,0.00048,396.626,0.097,0.8478,0.0036,139.998,45.000,34236.71742,1.90139,400.778,34.294,45.067,45.000,0.00,0.10,-272.73,-272.78,-9,988,-7,24.9,20.6,0.9,24.7,21.2,1.1,5.73,1.90,0.8,28.7
2015-06-25 00:32:00,0.0,1.88554,0.00044,396.774,0.065,0.8395,0.0030,140.004,45.000,34249.40711,1.90150,400.889,34.303,45.067,45.000,0.00,0.10,-272.71,-272.77,-9,988,-7,25.0,20.4,0.7,24.7,21.1,0.9,5.73,1.91,0.8,28.8
2015-06-25 00:33:00,0.0,1.88535,0.00036,396.537,0.116,0.8398,0.0047,139.994,45.000,34256.42966,1.90134,400.657,34.279,45.068,45.000,0.00,0.10,-272.71,-272.78,-8,988,-7,24.9,20.4,0.7,24.7,21.0,1.0,5.73,1.91,0.8,28.8
2015-06-25 00:34:00,0.0,1.88524,0.00036,396.591,0.087,0.8443,0.0041,140.001,45.000,34263.68196,1.90134,400.724,34.271,45.068,45.000,0.00,0.10,-272.72,-272.78,-8,988,-7,25.0,20.5,0.8,24.7,21.1,1.0,5.73,1.91,0.8,28.8
2015-06-25 00:35:00,0.0,1.88553,0.00046,396.611,0.085,0.8430,0.0048,139.998,45.000,34267.51800,1.90159,400.740,34.270,45.068,45.000,0.00,0.10,-272.71,-272.78,-9,989,-7,24.9,20.5,0.8,24.7,21.1,1.0,5.73,1.91,0.8,28.8
2015-06-25 00:36:00,0.0,1.88566,0.00038,396.697,0.079,0.8352,0.0025,139.997,45.000,34272.82347,1.90157,400.792,34.284,45.068,45.000,0.00,0.10,-272.70,-272.77,-8,988,-7,25.0,20.3,0.6,24.7,20.9,0.9,5.73,1.91,0.8,28.8
2015-06-25 00:37:00,0.0,1.88545,0.00046,396.712,0.111,0.8445,0.0037,139.999,45.000,34276.46446,1.90154,400.845,34.308,45.068,45.000,0.00,0.10,-272.71,-272.78,-8,988,-7,24.9,20.5,0.8,24.7,21.1,1.0,5.73,1.91,0.8,28.8
2015-06-25 00:38:00,0.0,1.88559,0.00055,396.698,0.102,0.8457,0.0037,140.000,45.000,34280.40275,1.90171,400.845,34.308,45.068,45.000,0.00,0.10,-272.72,-272.78,-8,988,-7,24.9,20.5,0.8,24.7,21.1,1.0,5.73,1.91,0.8,28.8
2015-06-25 00:39:00,0.0,1.88546,0.00043,396.591,0.086,0.8511,0.0046,139.997,45.000,34282.57547,1.90166,400.762,34.306,45.068,45.000,0.00,0.10,-272.71,-272.77,-8,989,-7,25.0,20.7,0.9,24.7,21.2,1.1,5.73,1.91,0.8,28.7
2015-06-25 00:40:00,0.0,1.88529,0.00045,396.683,0.106,0.8559,0.0079,140.004,45.000,34289.11780,1.90161,400.880,34.309,45.068,45.000,0.00,0.10,-272.71,-272.78,-8,988,-7,25.0,20.8,0.9,24.7,21.4,1.2,5.73,1.91,0.8,28.8
2015-06-25 00:41:00,0.0,1.88517,0.00058,396.743,0.127,0.8519,0.0023,139.996,45.000,34292.82216,1.90144,400.917,34.294,45.068,45.000,0.00,0.10,-272.72,-272.78,-8,988,-7,25.0,20.7,0.9,24.7,21.2,1.1,5.73,1.91,0.8,28.7
2015-06-25 00:42:00,0.0,1.88497,0.00043,396.638,0.067,0.8475,0.0035,140.000,45.000,34295.59084,1.90110,400.794,34.294,45.068,45.000,0.00,0.10,-272.71,-272.77,-8,988,-7,25.0,20.5,0.8,24.7,21.2,1.0,5.73,1.91,0.8,28.7
2015-06-25 00:43:00,0.0,1.88478,0.00043,396.611,0.071,0.8403,0.0032,139.998,45.000,34297.64743,1.90082,400.731,34.288,45.068,45.000,0.00,0.10,-272.71,-272.77,-8,988,-7,25.0,20.4,0.7,24.7,21.0,0.9,5.73,1.91,0.8,28.7
2015-06-25 00:44:00,0.0,1.88526,0.00038,396.661,0.121,0.8415,0.0040,139.999,45.000,34299.50058,1.90128,400.783,34.281,45.068,45.000,0.00,0.10,-272.72,-272.78,-8,988,-7,25.0,20.4,0.7,24.7,21.0,0.9,5.73,1.91,0.8,28.7
2015-06-25 00:45:00,0.0,1.88516,0.00035,396.701,0.105,0.8369,0.0035,140.002,45.000,34302.50569,1.90106,400.794,34.277,45.068,45.000,0.00,0.10,-272.72,-272.77,-8,988,-7,25.0,20.3,0.6,24.7,20.9,0.8,5.73,1.91,0.8,28.8
2015-06-25 00:46:00,0.0,1.88540,0.00059,396.746,0.142,0.8315,0.0023,140.001,45.000,34301.09295,1.90131,400.827,34.295,45.068,45.000,0.00,0.10,-272.71,-272.77,-8,988,-7,25.0,20.1,0.6,24.7,20.7,0.7,5.73,1.91,0.8,28.8
2015-06-25 00:47:00,0.0,1.88473,0.00034,396.611,0.075,0.8368,0.0045,140.000,45.000,34301.96174,1.90064,400.710,34.281,45.068,45.000,0.00,0.10,-272.71,-272.78,-9,988,-7,25.0,20.3,0.6,24.7,20.8,0.8,5.73,1.91,0.8,28.7
2015-06-25 00:48:00,0.0,1.88490,0.00055,396.663,0.106,0.8371,0.0031,140.002,45.000,34305.10902,1.90082,400.756,34.259,45.068,45.000,0.00,0.10,-272.71,-272.78,-8,988,-7,25.0,20.2,0.6,24.7,20.8,0.8,5.73,1.91,0.8,28.7
2015-06-25 00:49:00,0.0,1.88484,0.00039,396.742,0.050,0.8309,0.0030,139.997,45.000,34306.56691,1.90065,400.814,34.255,45.068,45.000,0.00,0.10,-272.71,-272.78,-8,988,-7,25.0,20.1,0.5,24.7,20.7,0.7,5.73,1.91,0.8,28.8
2015-06-25 00:50:00,0.0,1.88524,0.00061,396.733,0.048,0.8220,0.0031,139.999,45.000,34304.88605,1.90093,400.765,34.251,45.068,45.000,0.00,0.10,-272.71,-272.78,-9,988,-7,25.0,19.8,0.4,24.7,20.5,0.6,5.73,1.91,0.8,28.7
2015-06-25 00:51:00,0.0,1.88566,0.00061,396.792,0.095,0.8245,0.0040,140.000,45.000,34305.95078,1.90132,400.823,34.257,45.068,45.000,0.00,0.10,-272.72,-272.78,-9,988,-7,25.0,20.0,0.4,24.7,20.5,0.6,5.73,1.91,0.9,28.7
2015-06-25 00:52:00,0.0,1.88524,0.00040,396.741,0.107,0.8275,0.0031,140.000,45.000,34307.38293,1.90101,400.797,34.254,45.068,45.000,0.00,0.10,-272.71,-272.77,-8,988,-7,25.0,20.0,0.5,24.7,20.6,0.6,5.73,1.91,0.8,28.7
2015-06-25 00:53:00,0.0,1.88553,0.00048,396.781,0.058,0.8324,0.0019,140.002,45.000,34307.05901,1.90136,400.855,34.252,45.068,45.000,0.00,0.10,-272.72,-272.77,-8,988,-7,25.0,20.1,0.6,24.7,20.7,0.7,5.73,1.91,0.8,28.7
2015-06-25 00:54:00,0.0,1.88517,0.00046,396.639,0.073,0.8348,0.0033,139.998,45.000,34306.95760,1.90115,400.735,34.270,45.068,45.000,0.00,0.10,-272.72,-272.78,-8,989,-7,25.0,20.2,0.6,24.7,20.7,0.8,5.73,1.91,0.8,28.7
2015-06-25 00:55:00,0.0,1.88469,0.00039,396.643,0.076,0.8328,0.0038,140.002,45.000,34307.26315,1.90050,400.720,34.286,45.068,45.000,0.00,0.10,-272.72,-272.78,-8,989,-7,25.0,20.1,0.5,24.7,20.7,0.8,5.73,1.91,0.9,28.7
2015-06-25 00:56:00,0.0,1.88489,0.00053,396.691,0.135,0.8300,0.0049,140.000,45.000,34304.67121,1.90072,400.758,34.310,45.068,45.000,0.00,0.10,-272.71,-272.78,-8,989,-7,25.0,20.1,0.5,24.7,20.6,0.7,5.73,1.91,0.9,28.8
2015-06-25 00:57:00,0.0,1.88517,0.00061,396.696,0.090,0.8436,0.0078,140.003,45.000,34306.04070,1.90127,400.830,34.309,45.067,45.000,0.00,0.10,-272.72,-272.77,-8,989,-7,25.0,20.3,0.7,24.7,20.9,0.9,5.73,1.91,0.9,28.8
2015-06-25 00:58:00,0.0,1.88510,0.00050,396.676,0.089,0.8359,0.0040,140.004,45.000,34310.01292,1.90096,400.765,34.314,45.067,45.000,0.00,0.10,-272.71,-272.77,-8,989,-7,25.0,20.2,0.6,24.7,20.8,0.8,5.73,1.90,0.9,28.8
2015-06-25 00:59:00,0.0,1.88503,0.00049,396.674,0.097,0.8329,0.0030,140.000,45.000,34308.77779,1.90093,400.754,34.318,45.067,45.000,0.00,0.10,-272.71,-272.77,-8,989,-7,25.0,20.1,0.6,24.7,20.7,0.7,5.73,1.92,0.9,28.7
2015-06-25 01:00:00,0.0,1.88500,0.00049,396.704,0.079,0.8352,0.0031,140.004,45.000,34312.02480,1.90087,400.802,34.362,45.067,45.000,0.00,0.10,-272.71,-272.77,-8,989,-7,25.0,20.1,0.6,24.7,20.7,0.7,5.73,1.91,0.9,28.7
2015-06-25 01:01:00,0.0,1.88500,0.00054,396.644,0.070,0.8350,0.0034,140.004,45.000,34313.30680,1.90090,400.731,34.365,45.067,45.000,0.00,0.10,-272.71,-272.78,-8,989,-7,25.0,20.2,0.6,24.7,20.7,0.7,5.73,1.91,0.9,28.7
2015-06-25 01:02:00,0.0,1.88524,0.00047,396.747,0.085,0.8376,0.0023,140.002,45.000,34313.75047,1.90119,400.848,34.369,45.067,45.000,0.00,0.10,-272.71,-272.78,-8,989,-7,25.0,20.2,0.6,24.8,20.8,0.8,5.73,1.91,0.9,28.7
2015-06-25 01:03:00,0.0,1.88479,0.00054,396.624,0.085,0.8443,0.0040,139.998,45.000,34314.31446,1.90088,400.760,34.374,45.067,45.000,0.00,0.10,-272.71,-272.78,-8,989,-7,25.0,20.4,0.8,24.7,20.9,0.9,5.73,1.91,0.9,28.7
2015-06-25 01:04:00,0.0,1.88500,0.00033,396.659,0.060,0.8400,0.0055,140.007,45.000,34317.78055,1.90101,400.777,34.375,45.067,45.000,0.00,0.10,-272.71,-272.78,-9,989,-7,25.0,20.3,0.7,24.7,20.9,0.9,5.73,1.91,0.9,28.7
2015-06-25 01:05:00,0.0,1.88492,0.00038,396.701,0.067,0.8438,0.0028,139.996,45.000,34315.09622,1.90100,400.835,34.374,45.067,45.000,0.00,0.10,-272.72,-272.78,-9,989,-7,25.0,20.4,0.7,24.7,20.9,0.9,5.73,1.91,0.9,28.7
2015-06-25 01:06:00,0.0,1.88519,0.00029,396.762,0.069,0.8450,0.0025,140.001,45.000,34315.20485,1.90132,400.900,34.374,45.067,45.000,0.00,0.10,-272.72,-272.77,-8,989,-7,25.0,20.4,0.7,24.7,20.9,0.9,5.73,1.91,0.9,28.8
2015-06-25 01:07:00,0.0,1.88516,0.00048,396.690,0.087,0.8464,0.0036,140.002,45.000,34315.36858,1.90127,400.838,34.348,45.068,45.000,0.00,0.10,-272.72,-272.78,-8,989,-7,25.0,20.4,0.8,24.8,21.0,0.9,5.73,1.91,0.9,28.7
2015-06-25 01:08:00,0.0,1.88553,0.00049,396.769,0.104,0.8433,0.0054,140.001,45.000,34313.32082,1.90160,400.906,34.344,45.068,45.000,0.00,0.10,-272.72,-272.78,-8,989,-7,25.0,20.4,0.8,24.8,21.0,0.9,5.73,1.91,0.9,28.8
2015-06-25 01:09:00,0.0,1.88509,0.00049,396.604,0.076,0.8501,0.0028,140.004,45.000,34314.11054,1.90130,400.767,34.365,45.068,45.000,0.00,0.10,-272.71,-272.77,-8,988,-7,25.0,20.5,0.8,24.8,21.0,1.0,5.73,1.91,0.9,28.8
2015-06-25 01:10:00,0.0,1.88526,0.00056,396.616,0.077,0.8502,0.0021,140.004,45.000,34313.97334,1.90143,400.783,34.375,45.068,45.000,0.00,0.10,-272.71,-272.77,-8,989,-7,25.0,20.5,0.8,24.8,21.1,1.0,5.73,1.91,0.9,28.7
2015-06-25 01:11:00,0.0,1.88581,0.00044,396.735,0.066,0.8506,0.0029,139.996,45.000,34311.85319,1.90202,400.904,34.375,45.068,45.000,0.00,0.10,-272.72,-272.78,-8,989,-7,25.0,20.5,0.8,24.8,21.1,1.0,5.73,1.91,0.9,28.7
2015-06-25 01:12:00,0.0,1.88533,0.00040,396.662,0.076,0.8478,0.0023,139.996,45.000,34313.35820,1.90148,400.817,34.376,45.068,45.000,0.00,0.10,-272.72,-272.77,-8,988,-7,25.0,20.4,0.8,24.8,21.0,1.0,5.73,1.91,0.9,28.7
2015-06-25 01:13:00,0.0,1.88538,0.00062,396.598,0.079,0.8518,0.0023,139.999,45.000,34315.37697,1.90159,400.772,34.379,45.068,45.000,0.00,0.10,-272.71,-272.77,-8,988,-7,25.0,20.5,0.9,24.8,21.1,1.0,5.73,1.91,0.9,28.7
2015-06-25 01:14:00,0.0,1.88632,0.00052,396.781,0.067,0.8473,0.0028,139.997,45.000,34311.98847,1.90249,400.938,34.389,45.068,45.000,0.00,0.10,-272.72,-272.78,-8,989,-7,25.0,20.4,0.7,24.8,21.0,1.0,5.73,1.91,0.9,28.7
2015-06-25 01:15:00,0.0,1.88622,0.00044,396.729,0.090,0.8458,0.0060,140.001,45.000,34315.30929,1.90236,400.876,34.409,45.067,45.000,0.00,0.10,-272.72,-272.78,-8,989,-7,25.0,20.4,0.8,24.8,21.0,1.0,5.73,1.91,0.9,28.8
2015-06-25 01:16:00,0.0,1.88638,0.00044,396.759,0.082,0.8421,0.0034,140.001,45.000,34316.36595,1.90245,400.885,34.438,45.067,45.000,0.00,0.10,-272.71,-272.78,-8,988,-7,25.1,20.2,0.7,24.8,20.8,0.9,5.73,1.91,0.9,28.8
2015-06-25 01:17:00,0.0,1.88628,0.00045,396.726,0.061,0.8429,0.0028,140.001,45.000,34315.22054,1.90234,400.857,34.429,45.067,45.000,0.00,0.10,-272.71,-272.78,-8,988,-7,25.1,20.3,0.7,24.8,20.9,0.9,5.73,1.91,0.9,28.8
2015-06-25 01:18:00,0.0,1.88639,0.00045,396.727,0.056,0.8354,0.0056,139.993,45.000,34313.93155,1.90229,400.820,34.400,45.067,45.000,0.00,0.10,-272.72,-272.78,-8,989,-7,25.1,20.1,0.6,24.8,20.7,0.8,5.73,1.91,0.9,28.8
2015-06-25 01:19:00,0.0,1.88633,0.00033,396.726,0.065,0.8360,0.0025,139.996,45.000,34313.50588,1.90225,400.817,34.375,45.067,45.000,0.00,0.10,-272.71,-272.77,-8,988,-7,25.1,20.1,0.6,24.8,20.7,0.8,5.73,1.91,0.9,28.8
2015-06-25 01:20:00,0.0,1.88707,0.00059,396.812,0.072,0.8293,0.0056,140.003,45.000,34315.10585,1.90286,400.878,34.375,45.067,45.000,0.00,0.10,-272.71,-272.77,-8,989,-7,25.1,19.9,0.5,24.8,20.6,0.7,5.73,1.91,0.9,28.8
2015-06-25 01:21:00,0.0,1.88718,0.00050,396.918,0.064,0.8310,0.0028,140.001,45.000,34315.45402,1.90299,400.991,34.375,45.068,45.000,0.00,0.10,-272.72,-272.78,-9,989,-7,25.1,20.0,0.5,24.8,20.6,0.7,5.73,1.91,0.9,28.8
2015-06-25 01:22:00,0.0,1.88641,0.00046,396.680,0.063,0.8356,0.0046,139.996,45.000,34314.12323,1.90238,400.775,34.375,45.068,45.000,0.00,0.10,-272.72,-272.78,-8,988,-7,25.1,20.1,0.6,24.8,20.6,0.7,5.73,1.91,0.9,28.8
2015-06-25 01:23:00,0.0,1.88701,0.00050,396.756,0.064,0.8391,0.0029,140.001,45.000,34315.66737,1.90303,400.868,34.376,45.068,45.000,0.00,0.10,-272.71,-272.77,-8,989,-7,25.1,20.1,0.6,24.8,20.8,0.8,5.73,1.91,0.9,28.8
2015-06-25 01:24:00,0.0,1.88698,0.00039,396.700,0.066,0.8391,0.0039,140.003,45.000,34316.80576,1.90296,400.809,34.380,45.068,45.000,0.00,0.10,-272.71,-272.78,-9,989,-7,25.1,20.2,0.6,24.8,20.7,0.8,5.73,1.91,0.9,28.8
2015-06-25 01:25:00,0.0,1.88664,0.00041,396.680,0.084,0.8333,0.0029,140.001,45.000,34316.43304,1.90253,400.764,34.395,45.068,45.000,0.00,0.10,-272.72,-272.78,-8,988,-7,25.1,20.1,0.6,24.8,20.6,0.7,5.73,1.91,0.9,28.8
2015-06-25 01:26:00,0.0,1.88732,0.00042,396.772,0.067,0.8411,0.0023,140.000,45.000,34315.50006,1.90336,400.891,34.417,45.068,45.000,0.00,0.10,-272.71,-272.77,-8,989,-7,25.1,20.2,0.7,24.8,20.8,0.8,5.73,1.91,0.9,28.8
2015-06-25 01:27:00,0.0,1.88717,0.00065,396.734,0.080,0.8348,0.0032,140.006,45.000,34318.01667,1.90299,400.822,34.411,45.068,45.000,0.00,0.10,-272.71,-272.77,-9,989,-7,25.1,20.1,0.6,24.8,20.7,0.8,5.73,1.91,1.0,28.8
2015-06-25 01:28:00,0.0,1.88790,0.00055,396.832,0.054,0.8369,0.0026,139.999,45.000,34318.03215,1.90387,400.935,34.400,45.068,45.000,0.00,0.10,-272.72,-272.77,-8,988,-7,25.1,20.1,0.6,24.8,20.7,0.8,5.73,1.91,0.9,28.8
2015-06-25 01:29:00,0.0,1.88712,0.00037,396.609,0.083,0.8368,0.0033,140.003,45.000,34318.07231,1.90316,400.711,34.383,45.068,45.000,0.00,0.10,-272.72,-272.78,-8,989,-7,25.1,20.1,0.6,24.8,20.7,0.8,5.73,1.91,1.0,28.9
2015-06-25 01:30:00,0.0,1.88687,0.00071,396.579,0.085,0.8438,0.0023,139.998,45.000,34316.24610,1.90290,400.713,34.390,45.068,45.000,0.00,0.10,-272.71,-272.77,-9,989,-7,25.1,20.3,0.7,24.8,20.9,0.9,5.73,1.91,1.0,28.8
2015-06-25 01:31:00,0.0,1.88835,0.00064,396.690,0.081,0.8366,0.0033,139.997,45.000,34314.26174,1.90427,400.792,34.402,45.068,45.000,0.00,0.10,-272.71,-272.79,-8,989,-7,25.1,20.1,0.6,24.8,20.7,0.8,5.73,1.91,0.9,28.8
2015-06-25 01:32:00,0.0,1.88763,0.00056,396.553,0.079,0.8462,0.0049,140.000,45.000,34314.21486,1.90379,400.696,34.406,45.068,45.000,0.00,0.10,-272.72,-272.78,-8,989,-7,25.1,20.3,0.7,24.8,20.9,0.9,5.73,1.91,0.9,28.8
2015-06-25 01:33:00,0.0,1.88794,0.00035,396.652,0.052,0.8378,0.0018,140.002,45.000,34314.03838,1.90391,400.757,34.412,45.067,45.000,0.00,0.10,-272.71,-272.77,-9,989,-7,25.1,20.1,0.6,24.8,20.8,0.8,5.73,1.91,1.0,28.8
2015-06-25 01:34:00,0.0,1.88757,0.00052,396.611,0.050,0.8321,0.0043,140.004,45.000,34314.16219,1.90350,400.688,34.425,45.067,45.000,0.00,0.10,-272.71,-272.77,-8,989,-7,25.1,20.0,0.5,24.8,20.6,0.7,5.73,1.90,1.0,28.8
2015-06-25 01:35:00,0.0,1.88723,0.00057,396.521,0.047,0.8427,0.0021,139.998,45.000,34314.27108,1.90333,400.649,34.435,45.067,45.000,0.00,0.10,-272.72,-272.78,-8,989,-7,25.1,20.2,0.7,24.9,20.8,0.9,5.73,1.91,1.0,28.9
2015-06-25 01:36:00,0.0,1.88794,0.00061,396.632,0.053,0.8351,0.0024,139.997,45.000,34315.82746,1.90383,400.722,34.438,45.067,45.000,0.00,0.10,-272.72,-272.78,-9,989,-7,25.1,20.0,0.6,24.8,20.7,0.8,5.73,1.90,1.0,28.9
2015-06-25 01:37:00,0.0,1.88712,0.00068,396.575,0.070,0.8364,0.0041,140.002,45.000,34317.69341,1.90305,400.668,34.438,45.067,45.000,0.00,0.10,-272.71,-272.77,-8,989,-7,25.1,20.1,0.6,24.8,20.7,0.8,5.73,1.90,1.0,28.9
2015-06-25 01:38:00,0.0,1.88739,0.00042,396.661,0.050,0.8347,0.0028,140.001,45.000,34320.20400,1.90334,400.751,34.437,45.068,45.000,0.00,0.10,-272.72,-272.78,-8,989,-7,25.1,20.0,0.5,24.9,20.6,0.8,5.73,1.90,1.0,28.8
2015-06-25 01:39:00,0.0,1.88774,0.00052,396.771,0.034,0.8184,0.0054,140.001,45.000,34320.22851,1.90334,400.779,34.440,45.068,45.000,0.00,0.10,-272.71,-272.78,-9,989,-7,25.1,19.6,0.3,24.8,20.2,0.5,5.73,1.90,1.0,28.8
2015-06-25 01:40:00,0.0,1.88771,0.00035,396.772,0.035,0.8211,0.0029,139.998,45.000,34318.33211,1.90334,400.791,34.439,45.067,45.000,0.00,0.10,-272.71,-272.77,-9,989,-7,25.1,19.6,0.3,24.8,20.2,0.5,5.73,1.90,1.0,28.8
2015-06-25 01:41:00,0.0,1.88775,0.00041,396.842,0.033,0.8072,0.0036,139.999,45.000,34319.73761,1.90315,400.796,34.438,45.068,45.000,0.00,0.10,-272.72,-272.78,-9,989,-7,25.1,19.3,0.1,24.8,20.0,0.3,5.73,1.90,1.0,28.8
2015-06-25 01:42:00,0.0,1.88763,0.00049,396.817,0.042,0.8088,0.0042,140.001,45.000,34321.58303,1.90309,400.777,34.438,45.068,45.000,0.00,0.10,-272.72,-272.78,-9,989,-7,25.1,19.4,0.1,24.9,19.9,0.3,5.73,1.90,1.0,28.8
2015-06-25 01:43:00,0.0,1.88714,0.00053,396.835,0.052,0.8041,0.0053,140.001,45.000,34322.10454,1.90244,400.774,34.441,45.068,45.000,0.00,0.10,-272.71,-272.78,-8,989,-7,25.1,19.2,0.0,24.9,19.9,0.3,5.73,1.90,1.0,28.8
2015-06-25 01:44:00,0.0,1.88780,0.00079,396.771,0.060,0.8130,0.0027,140.000,45.000,34322.73655,1.90323,400.753,34.443,45.068,45.000,0.00,0.10,-272.71,-272.77,-9,989,-7,25.1,19.4,0.2,24.9,20.0,0.3,5.73,1.90,1.0,28.8
2015-06-25 01:45:00,0.0,1.88813,0.00036,396.768,0.046,0.8155,0.0030,139.998,45.000,34322.22170,1.90367,400.757,34.474,45.068,45.000,0.00,0.10,-272.71,-272.78,-9,989,-7,25.1,19.5,0.2,24.9,20.1,0.4,5.73,1.90,1.0,28.9
2015-06-25 01:46:00,0.0,1.88882,0.00039,396.729,0.044,0.8156,0.0027,139.999,45.000,34321.22858,1.90436,400.725,34.486,45.067,45.000,0.00,0.10,-272.71,-272.78,-8,989,-7,25.1,19.6,0.3,24.9,20.1,0.4,5.73,1.90,1.0,28.8
2015-06-25 01:47:00,0.0,1.88932,0.00053,396.733,0.065,0.8269,0.0041,140.000,45.000,34321.32306,1.90505,400.778,34.499,45.067,45.000,0.00,0.10,-272.71,-272.77,-9,989,-7,25.1,19.8,0.4,24.9,20.3,0.6,5.73,1.90,1.0,28.8
2015-06-25 01:48:00,0.0,1.88796,0.00093,396.725,0.056,0.8242,0.0021,140.001,45.000,34322.68363,1.90377,400.764,34.500,45.067,45.000,0.00,0.10,-272.72,-272.78,-9,989,-7,25.1,19.7,0.4,24.9,20.3,0.6,5.73,1.90,1.0,28.8